This is the latest recevied weather packets stored in our database for station/object C31FR-13. If no packets are shown the sender has not sent any weather packets the latest 10 day(s).
| Time | Temp. | Humidity | Pressure | Rain* | Wind** | Luminosity | Snow |
|---|---|---|---|---|---|---|---|
| 1777569363 | 18.33° C | 56% | 1017.2 hPa | - | - | - | - |
| 1777568763 | 18.33° C | 55% | 1017.1 hPa | - | - | - | - |
| 1777568163 | 18.89° C | 54% | 1017.2 hPa | - | - | - | - |
| 1777567863 | 18.89° C | 54% | 1017.3 hPa | - | - | - | - |
| 1777567563 | 18.89° C | 54% | 1017.2 hPa | - | - | - | - |
| 1777567262 | 18.89° C | 54% | 1017.1 hPa | - | - | - | - |
| 1777566962 | 19.44° C | 53% | 1017 hPa | - | - | - | - |
| 1777566662 | 19.44° C | 52% | 1017 hPa | - | - | - | - |
| 1777566362 | 19.44° C | 52% | 1017.1 hPa | - | - | - | - |
| 1777566062 | 18.89° C | 52% | 1017 hPa | - | - | - | - |
| 1777565763 | 19.44° C | 53% | 1017 hPa | - | - | - | - |
| 1777565463 | 20° C | 52% | 1016.8 hPa | - | - | - | - |
| 1777565163 | 20.56° C | 51% | 1016.8 hPa | - | - | - | - |
| 1777564562 | 20° C | 55% | 1016.7 hPa | - | - | - | - |
| 1777564262 | 19.44° C | 54% | 1016.8 hPa | - | - | - | - |
| 1777563962 | 18.89° C | 53% | 1016.8 hPa | - | - | - | - |
| 1777563663 | 18.33° C | 55% | 1017 hPa | - | - | - | - |
| 1777563362 | 18.89° C | 53% | 1016.8 hPa | - | - | - | - |
| 1777562762 | 18.89° C | 50% | 1016.5 hPa | - | - | - | - |
| 1777562462 | 19.44° C | 50% | 1016.4 hPa | - | - | - | - |
| 1777562162 | 18.89° C | 49% | 1016.5 hPa | - | - | - | - |
| 1777561863 | 18.89° C | 50% | 1016.5 hPa | - | - | - | - |
| 1777561563 | 18.89° C | 50% | 1016.4 hPa | - | - | - | - |
| 1777561262 | 19.44° C | 49% | 1016.4 hPa | - | - | - | - |
| 1777560962 | 19.44° C | 47% | 1016.4 hPa | - | - | - | - |
* Rain since midnight (hover to see other rain measurements)
** Current wind speed in m/s (hover to see current wind gust speed)